Salt Lake City, UT

11:58 AM MDT on August 28, 2016 (GMT -0600)
Salt Lake City International

Weather History for KSLC - January, 2013

Change the Weather History Date:

Friday, January 4, 2013

  Actual Average Record
Temperature  
Mean Temperature 14 °F 29 °F  
Max Temperature 20 °F 37 °F 53 °F (1956)
Min Temperature 7 °F 22 °F -13 °F (1973)
Degree Days  
Heating Degree Days 51 36  
Month to date heating degree days 195 144  
Since 1 July heating degree days 2010 2438  
Cooling Degree Days 0 0  
Month to date cooling degree days 0 0  
Year to date cooling degree days 0 0  
Moisture  
Dew Point 7 °F    
Average Humidity 79    
Maximum Humidity 91    
Minimum Humidity 67    
Precipitation  
Precipitation T in 0.05 in 0.62 in (1888)
Month to date precipitation 0.01 0.18  
Year to date precipitation 0.01 0.18  
Snow  
Snow T in 0.40 in 4.90 in (2007)
Month to date snowfall 0.2 1.8  
Since 1 July snowfall 28.8 24.0  
Snow Depth 3.00 in    
Sea Level Pressure  
Sea Level Pressure 30.56 in    
Wind  
Wind Speed 5 mph (SE)    
Max Wind Speed 12 mph    
Max Gust Speed 13 mph    
Visibility 6 miles    
Events Snow    
T = Trace of Precipitation, MM = Missing Value Source: NWS Daily Summary

Daily Weather History Graph

Daily Weather History Graph

Search for Another Location

Airport or City:

Trip Planner

Search our weather history database for the weather conditions in past years. The results will help you decide how hot, cold, wet, or windy it might be!

Date:

Astronomy

Jan. 04, 2013 Rise Set
Actual Time 7:52 AM MST 5:14 PM MST
Civil Twilight 7:21 AM MST 5:44 PM MST
Nautical Twilight 6:47 AM MST 6:19 PM MST
Astronomical Twilight 6:14 AM MST 6:52 PM MST
Moon No Moon Rise 11:34 AM MST (1/4)
Length of Visible Light 10h 23m
Length of Day
9h 21m
Waning Gibbous, 54% of the Moon is Illuminated
Jan 4
Waning Gibbous
Jan 4
Last Quarter
Jan 11
New
Jan 18
First Quarter
Jan 26
Full

Hourly Weather History & Observations

Time (MST) Temp. Windchill Dew Point Humidity Pressure Visibility Wind Dir Wind Speed Gust Speed Precip Events Conditions
12:53 AM 10.9 °F 2.9 °F 7.0 °F 84% 30.58 in 5.0 mi SSE 4.6 mph - 0.00 in Snow Light Snow
1:53 AM 10.0 °F 0.4 °F 5.0 °F 80% 30.57 in 5.0 mi SE 5.8 mph - 0.00 in   Scattered Clouds
2:53 AM 9.0 °F -2.2 °F 5.0 °F 84% 30.57 in 6.0 mi SSE 6.9 mph - N/A   Clear
3:53 AM 9.0 °F 0.6 °F 5.0 °F 84% 30.58 in 8.0 mi ESE 4.6 mph - N/A   Clear
4:53 AM 8.6 °F -1.3 °F 5.0 °F 85% 30.42 in 8.0 mi SE 5.8 mph - N/A   Clear
5:53 AM 8.1 °F - 3.9 °F 83% 30.61 in 8.0 mi Calm Calm - N/A   Scattered Clouds
6:53 AM 8.1 °F -2.0 °F 3.9 °F 83% 30.63 in 8.0 mi SE 5.8 mph - N/A   Partly Cloudy
7:53 AM 8.1 °F -2.0 °F 3.0 °F 80% 30.62 in 7.0 mi South 5.8 mph - N/A   Partly Cloudy
8:53 AM 8.1 °F -3.2 °F 3.9 °F 83% 30.62 in 7.0 mi SE 6.9 mph - N/A   Partly Cloudy
9:31 AM 10.9 °F 1.4 °F 6.1 °F 81% 30.44 in 7.0 mi SSE 5.8 mph - N/A   Mostly Cloudy
9:53 AM 12.0 °F 2.7 °F 6.1 °F 77% 30.62 in 6.0 mi SE 5.8 mph - 0.00 in Snow Light Snow
10:14 AM 12.9 °F 3.8 °F 7.0 °F 77% 30.44 in 3.0 mi SE 5.8 mph - 0.00 in Snow Light Snow
10:53 AM 14.0 °F - 9.0 °F 80% 30.62 in 3.0 mi Calm Calm - 0.00 in   Haze
11:53 AM 17.1 °F 10.0 °F 9.0 °F 71% 30.58 in 3.0 mi North 4.6 mph - 0.00 in Snow Light Snow
12:53 PM 19.9 °F 14.9 °F 9.0 °F 62% 30.54 in 3.0 mi NW 3.5 mph - 0.00 in   Partly Cloudy
1:53 PM 19.0 °F 7.5 °F 10.0 °F 68% 30.54 in 3.0 mi North 10.4 mph - N/A   Scattered Clouds
2:04 PM 19.0 °F 8.2 °F 10.9 °F 71% 30.39 in 3.0 mi North 9.2 mph - N/A   Mostly Cloudy
2:13 PM 19.0 °F 8.2 °F 10.9 °F 71% 30.38 in 3.0 mi NNW 9.2 mph - N/A   Scattered Clouds
2:53 PM 19.0 °F 11.1 °F 10.9 °F 71% 30.53 in 8.0 mi NNW 5.8 mph - N/A   Partly Cloudy
3:53 PM 18.0 °F 9.8 °F 9.0 °F 68% 30.55 in 8.0 mi NNW 5.8 mph - N/A   Scattered Clouds
4:53 PM 15.1 °F 6.4 °F 8.1 °F 74% 30.55 in 9.0 mi WNW 5.8 mph - N/A   Partly Cloudy
5:53 PM 10.0 °F -3.7 °F 6.1 °F 84% 30.58 in 9.0 mi North 10.4 mph - N/A   Partly Cloudy
6:53 PM 9.0 °F -2.2 °F 5.0 °F 84% 30.59 in 8.0 mi North 6.9 mph - N/A   Scattered Clouds
7:53 PM 9.0 °F 0.6 °F 6.1 °F 88% 30.60 in 6.0 mi Variable 4.6 mph - N/A   Scattered Clouds
8:53 PM 9.0 °F - 6.1 °F 88% 30.60 in 6.0 mi Calm Calm - N/A   Scattered Clouds
9:53 PM 8.1 °F 1.4 °F 5.0 °F 87% 30.60 in 5.0 mi SW 3.5 mph - N/A   Mostly Cloudy
10:23 PM 10.0 °F 3.6 °F 5.0 °F 80% 30.41 in 5.0 mi SSW 3.5 mph - N/A   Haze
10:53 PM 10.0 °F 3.6 °F 6.1 °F 84% 30.58 in 6.0 mi South 3.5 mph - N/A   Mostly Cloudy
11:53 PM 9.0 °F - 5.0 °F 84% 30.59 in 6.0 mi Calm Calm - N/A   Partly Cloudy